This is the latest recevied weather packets stored in our database for station/object DH8TOM-2. If no packets are shown the sender has not sent any weather packets the latest 1 day(s).
| Time | Temp. | Humidity | Pressure | Rain* | Wind** | Luminosity | Snow |
|---|---|---|---|---|---|---|---|
| 1778004521 | 14.44° C | 89% | 1005.1 hPa | 0.76 mm | 0.45 m/s, 202° | - | - |
| 1778004219 | 14.44° C | 89% | 1005.2 hPa | 1.02 mm | 0.45 m/s, 203° | - | - |
| 1778003919 | 14.44° C | 89% | 1005.2 hPa | 1.02 mm | 0.45 m/s, 203° | - | - |
| 1778003617 | 15° C | 89% | 1005.1 hPa | 1.52 mm | 0.45 m/s, 225° | - | - |
| 1778003317 | 15° C | 89% | 1005.1 hPa | 1.52 mm | 0.45 m/s, 225° | - | - |
| 1778003016 | 15° C | 89% | 1005.1 hPa | 1.27 mm | 0.45 m/s, 225° | - | - |
| 1778002715 | 15° C | 89% | 1005.1 hPa | 1.27 mm | 0.45 m/s, 225° | - | - |
| 1778002414 | 15° C | 89% | 1005.1 hPa | 1.02 mm | 0.45 m/s, 270° | - | - |
| 1778002113 | 15° C | 89% | 1005.1 hPa | 1.02 mm | 0.45 m/s, 270° | - | - |
| 1778001813 | 15.56° C | 88% | 1005.2 hPa | 1.02 mm | 0.45 m/s, 236° | - | - |
| 1778001511 | 15.56° C | 88% | 1005.2 hPa | 1.02 mm | 0.45 m/s, 236° | - | - |
| 1778001210 | 15.56° C | 88% | 1005.1 hPa | 0.76 mm | 0.45 m/s, 290° | - | - |
| 1778000909 | 15.56° C | 88% | 1005.1 hPa | 0.76 mm | 0.45 m/s, 290° | - | - |
| 1778000608 | 16.11° C | 86% | 1005.2 hPa | 0.25 mm | 0.89 m/s, 298° | - | - |
| 1778000307 | 16.11° C | 86% | 1005.2 hPa | 0.25 mm | 0.89 m/s, 298° | - | - |
| 1778000006 | 16.11° C | 85% | 1005 hPa | 0 mm | 0.89 m/s, 293° | - | - |
| 1777999705 | 16.11° C | 85% | 1005 hPa | 0 mm | 0.89 m/s, 293° | - | - |
| 1777999405 | 16.11° C | 84% | 1004.9 hPa | 0 mm | 0.89 m/s, 302° | - | - |
| 1777999103 | 16.11° C | 84% | 1004.9 hPa | 0 mm | 0.89 m/s, 302° | - | - |
| 1777998802 | 16.11° C | 84% | 1004.7 hPa | 0 mm | 0.45 m/s, 327° | - | - |
| 1777998501 | 16.11° C | 84% | 1004.7 hPa | 0 mm | 0.45 m/s, 327° | - | - |
| 1777998201 | 16.11° C | 84% | 1004.7 hPa | 0 mm | 0.45 m/s, 331° | - | - |
| 1777997899 | 16.11° C | 84% | 1004.7 hPa | 0 mm | 0.45 m/s, 331° | - | - |
| 1777997598 | 16.11° C | 84% | 1004.7 hPa | 0 mm | 0.45 m/s, 0° | - | - |
| 1777997297 | 16.11° C | 84% | 1004.7 hPa | 0 mm | 0.45 m/s, 0° | - | - |
* Rain latest hour (hover to see other rain measurements)
** Current wind speed in m/s (hover to see current wind gust speed)